CAPE
1 1 1 2 2 2 2 2 1 2 0 1 0 1 0 1 1 0 0 0 0 0 0 0 0 0 0 0 19 8 199 172 268 317 193 144 130 62 46 25 9 0 15 119 83 155 45 32 1 79 13 44 196 279
1 1 1 1 2 1 1 0 0 1 0 1 0 0 1 2 1 1 0 0 0 0 0 0 0 0 0 0 0 0 15 128 54 115 77 54 26 25 11 32 21 0 2 86 184 64 41 44 42 27 0 0 0 118
1 1 1 2 0 0 0 0 0 0 0 0 0 0 0 1 2 1 0 0 0 0 0 0 0 0 0 0 0 0 0 0 32 4 0 6 2 0 0 3 64 1 0 1 9 0 0 77 5 0 0 0 0 1
1 1 1 1 0 0 0 0 0 0 0 0 0 0 0 1 1 2 0 0 0 0 0 0 0 0 0 0 0 0 0 0 0 24 33 29 24 0 0 17 13 0 31 36 2 33 67 32 0 0 0 0 0 107
1 2 2 1 0 0 0 0 0 0 0 0 0 0 0 0 0 1 0 0 0 0 0 0 0 0 0 0 0 0 0 0 0 0 70 116 0 0 0 0 0 0 4 25 15 61 35 0 0 0 0 1 1 19
0 3 1 0 0 0 0 0 0 0 0 0 0 0 0 0 0 0 0 0 0 0 0 0 0 0 0 0 0 0 0 0 0 0 0 0 0 0 3 37 106 0 53 92 121 12 0 0 6 3 0 3 25 69
0 0 1 1 1 0 0 0 0 0 0 0 0 0 0 0 0 0 0 0 0 0 0 0 0 1 0 0 0 0 0 0 0 0 0 0 0 5 49 172 171 41 1 0 0 0 1 11 1 0 0 0 1 89
0 0 0 0 0 0 0 0 0 0 0 0 0 0 0 0 0 0 0 0 0 0 0 0 1 3 0 6 1 0 0 0 0 0 0 8 32 68 40 137 20 2 0 0 0 0 0 0 0 0 0 0 0 0
0 0 0 0 0 0 2 0 0 0 0 0 0 0 0 0 0 0 0 0 0 0 0 0 0 7 0 3 1 5 0 0 0 0 0 0 20 68 74 47 7 0 0 0 0 0 0 0 0 0 0 0 0 0
0 0 0 0 0 0 1 1 0 0 0 0 0 0 0 0 0 0 0 0 0 0 0 0 0 0 0 0 0 7 0 0 0 0 0 12 7 14 8 0 0 0 0 0 0 0 0 0 0 0 0 0 0 0
0 0 0 0 0 0 0 0 0 0 0 0 0 0 0 0 0 0 0 0 1 0 0 0 0 0 0 0 1 0 1 0 0 0 1 7 13 33 11 3 0 0 0 0 0 0 0 0 0 0 0 0 0 0
0 0 0 0 0 0 0 0 0 0 0 1 0 1 0 0 0 0 0 0 16 5 0 0 1 0 0 0 0 0 1 0 0 0 15 10 6 12 5 0 0 0 0 0 0 0 0 0 0 0 0 0 0 0
0 0 0 0 0 0 0 0 0 2 0 1 1 0 0 0 0 0 0 3 13 44 39 8 5 1 0 0 0 0 0 0 0 0 2 10 14 13 6 0 0 0 0 0 0 0 0 0 0 0 0 0 0 0
0 0 0 0 0 0 0 0 0 0 0 0 0 0 2 33 39 37 42 29 20 13 25 17 34 35 15 6 1 3 0 0 0 0 0 0 13 4 0 0 0 0 0 0 0 0 0 0 0 0 0 0 0 0
0 0 0 0 0 0 0 0 0 0 0 0 0 0 9 5 37 31 38 44 6 0 6 7 6 21 18 21 5 3 1 0 1 0 1 6 0 0 0 0 0 0 0 0 0 0 0 0 0 0 0 0 0 0
0 0 0 0 0 0 0 0 0 0 0 0 0 0 12 26 30 26 10 2 0 0 1 1 2 18 28 19 11 14 5 1 0 0 0 1 16 9 4 0 1 0 0 1 0 0 0 0 0 0 0 0 0 0
0 0 0 0 0 0 0 0 0 0 0 6 26 36 7 1 2 2 0 0 0 0 1 0 3 5 0 2 4 3 9 4 9 2 0 0 0 0 3 27 22 7 0 0 0 4 6 7 0 0 0 0 0 0
0 0 0 0 1 0 0 0 0 3 16 19 10 3 3 0 0 0 27 0 47 0 0 0 21 6 4 9 0 15 12 0 0 0 0 0 11 13 11 10 12 0 0 0 2 13 8 7 2 1 0 0 0 0
1 2 0 0 1 0 0 0 7 1 0 4 30 14 7 3 2 0 12 0 7 2 0 0 0 1 1 0 8 15 1 0 0 0 0 4 15 26 25 25 18 0 4 7 9 14 19 42 70 59 40 34 17 0
0 0 0 0 0 0 0 0 0 0 0 0 6 15 0 2 1 3 2 5 4 23 25 0 0 0 11 0 0 0 0 1 0 0 0 1 5 4 0 2 5 11 16 44 23 21 49 94 77 62 38 43 31 17
0 0 0 0 0 0 0 0 0 0 0 0 0 1 0 12 12 6 12 24 5 10 0 16 16 13 1 0 0 0 0 0 3 4 0 0 0 4 6 3 0 2 12 18 10 2 8 28 26 98 32 34 32 35
0 0 0 0 0 0 0 0 0 0 0 0 0 0 0 6 3 0 1 13 10 3 1 14 15 2 0 2 20 2 0 0 0 0 1 0 0 0 0 0 0 0 0 0 0 4 9 5 8 12 4 4 36 3
0 0 0 0 0 0 0 0 0 0 6 11 10 4 1 6 8 0 6 12 6 0 0 3 7 7 36 38 11 0 0 0 2 8 0 0 0 0 0 0 0 0 0 0 2 0 0 2 0 0 0 4 3 0
0 0 0 0 0 0 0 0 0 5 5 4 5 10 7 8 3 0 6 6 0 0 0 0 5 21 25 2 0 0 1 10 15 12 0 17 3 1 10 0 3 3 0 0 0 0 0 2 0 1 1 10 20 17
0 0 0 0 0 0 0 0 9 15 11 7 6 18 19 0 0 7 6 13 12 2 0 0 1 0 0 0 0 5 12 30 45 23 22 21 28 19 6 1 6 9 0 18 19 2 5 0 1 4 12 6 19 19
0 0 0 0 0 0 0 2 7 9 8 13 6 1 0 0 0 5 5 5 7 8 2 0 0 0 0 0 1 18 55 43 31 10 3 0 8 24 15 7 2 4 13 1 7 4 1 0 4 4 2 0 0 0
0 0 0 0 0 0 0 0 0 0 0 0 0 2 0 0 0 7 11 15 8 7 20 25 19 1 0 0 2 17 26 20 22 14 3 0 0 6 23 6 0 0 0 26 23 13 9 0 0 0 0 0 0 0
0 1 0 0 0 0 1 2 2 0 1 0 0 0 2 0 0 9 27 41 20 14 12 10 2 1 2 0 0 5 16 6 11 0 0 0 0 0 0 0 0 0 0 0 1 2 9 3 0 0 0 0 0 0
2 0 0 0 3 8 3 0 1 0 0 1 3 1 0 18 14 5 5 20 14 13 3 1 3 0 0 1 0 0 0 7 14 5 4 1 4 8 0 0 0 0 0 0 0 0 0 0 0 0 0 0 0 0
0 0 0 2 3 4 15 0 1 10 7 2 1 4 12 23 12 3 4 16 23 19 21 22 16 0 0 0 0 7 11 8 8 14 16 33 50 15 0 0 0 0 0 0 0 0 0 0 0 0 0 0 0 0
0 1 0 0 1 0 7 3 1 0 0 2 5 16 20 9 4 6 14 6 27 24 24 16 20 12 5 5 8 13 13 2 0 0 0 10 9 0 0 0 0 0 0 0 0 0 0 0 0 0 0 0 0 0
0 1 0 1 8 5 1 2 0 0 0 0 8 34 61 31 18 25 39 12 8 10 17 26 26 33 18 15 8 3 11 2 0 0 0 0 0 0 0 0 0 0 0 0 0 0 0 0 0 0 0 0 0 0
1 1 5 11 15 23 0 4 3 0 0 18 22 14 0 14 17 24 15 6 12 9 23 25 26 30 21 8 20 11 0 0 0 0 0 0 0 0 0 0 0 0 0 0 0 0 0 0 0 0 0 0 0 0
CIN
0 0 0 0 0 0 0 -1 -2 0 0 0 0 0 0 0 0 0 0 0 0 0 0 0 0 0 0 0 -118 -191 -131 -181 -164 -85 -122 -130 -138 -250 -224 -273 -240 -13 -144 -138 -196 -100 -86 -348 -140 -174 -61 -346 -287 -280
0 0 0 0 0 0 0 0 0 0 0 0 0 0 0 0 0 0 0 0 0 0 0 0 0 0 0 0 0 0 -57 -134 -184 -134 -215 -252 -196 -278 -291 -162 -383 0 -163 -158 -178 -146 -332 -375 -351 -340 0 0 0 -306
0 0 0 0 0 0 0 0 0 0 0 0 0 0 0 0 0 0 0 0 0 0 0 0 0 0 0 0 0 0 0 0 -157 -236 0 -186 -148 -46 -10 -168 -245 -96 -38 -52 -198 0 0 -196 -291 0 0 0 0 -66
0 0 0 0 0 0 0 0 0 0 0 0 0 0 0 0 0 0 0 0 0 0 0 0 0 0 0 0 0 0 0 0 0 -254 -172 -159 -122 0 0 -265 -269 0 -342 -288 -220 -182 -143 -159 0 0 0 0 0 -298
0 0 0 0 -1 0 0 0 0 0 0 0 0 0 0 0 0 0 0 0 0 0 0 0 0 0 0 0 0 0 0 0 0 -9 -97 -80 -4 0 0 0 0 -87 -75 -158 -81 -156 -118 -5 0 0 0 -160 -127 -247
0 -3 -5 0 0 0 0 0 0 0 0 0 0 0 0 0 0 0 0 0 0 0 0 0 0 0 0 0 0 0 0 0 0 0 0 0 -1 -1 -41 -98 -204 0 -267 -193 -135 -239 0 0 -278 -298 0 -295 -236 -191
0 0 0 0 0 0 0 0 0 0 0 0 0 0 0 0 0 0 0 0 0 0 0 0 -11 -13 0 0 0 0 0 0 0 0 0 0 0 -148 -102 -49 -195 -266 -30 0 0 0 -40 -276 -167 0 0 0 -42 -233
0 0 0 0 0 0 0 0 0 0 0 0 0 0 0 0 0 0 0 0 0 0 0 0 -28 -16 0 -15 -8 0 0 0 0 0 0 -53 -126 -119 -45 -175 -219 -99 0 0 0 0 0 0 0 0 0 0 0 0
0 0 0 0 0 0 0 0 0 0 0 0 0 0 0 0 0 0 0 0 0 0 0 0 0 -11 0 -70 -65 -40 0 0 0 0 0 0 -85 -48 -134 -180 -140 0 0 0 0 0 0 0 0 0 0 0 0 0
0 0 0 0 0 0 0 0 0 0 0 0 0 0 0 0 0 0 0 0 0 0 0 0 0 0 0 0 -9 -32 0 0 0 0 0 -45 -52 -218 -221 0 0 0 0 0 0 0 0 0 0 0 0 0 0 0
0 0 0 0 0 0 0 0 0 0 0 0 0 0 0 0 0 0 0 0 -6 0 0 0 0 0 0 0 -22 0 -15 0 0 0 -3 -40 -32 -134 -223 -243 0 0 0 0 0 0 0 0 0 0 0 0 0 0
0 0 0 0 0 0 0 0 0 0 0 0 0 0 0 0 0 0 0 0 -18 -5 0 0 -16 0 0 0 0 -43 -41 -13 0 0 -19 -17 -86 -185 -195 0 0 0 0 0 0 0 0 0 0 0 0 0 0 0
0 0 0 0 0 0 0 0 0 0 0 0 0 0 0 0 0 0 0 -7 -19 -31 -32 -10 -13 -6 0 0 0 0 0 0 0 0 -10 -60 -149 -165 -157 0 0 0 0 0 0 0 0 0 0 0 0 0 0 0
0 0 0 0 0 0 0 0 0 0 0 0 0 0 0 -9 -9 -13 -8 -19 -68 -114 -86 -67 -19 -23 -58 -28 -12 -8 0 0 0 0 0 0 -135 -106 0 0 0 0 0 0 0 0 0 0 0 0 0 0 0 0
0 0 0 0 0 0 0 0 0 0 0 0 0 0 -24 -26 -19 -31 -35 -33 -126 -182 -157 -99 -60 -33 -26 -15 -34 -5 -5 0 -11 0 -15 -77 0 -9 0 0 0 0 0 0 0 0 0 0 0 0 0 0 0 0
0 0 0 0 0 0 0 0 0 0 0 0 0 0 -29 -27 -34 -56 -68 -20 0 0 -53 -67 -42 -19 -14 -15 -12 -8 -9 -4 0 0 0 -43 -82 -93 -83 -36 -77 0 0 -17 0 0 0 0 0 0 0 0 0 0
0 0 0 0 0 0 0 0 0 0 0 -5 -9 -35 -36 -39 -4 -17 -9 -11 0 0 -2 0 -7 -21 0 -12 -17 -47 -18 -54 -92 -88 0 0 -7 0 -41 -43 -41 -38 0 0 -1 -23 -27 -30 0 0 0 0 0 0
0 0 0 0 0 0 0 0 0 -30 -8 -15 -14 -34 -61 0 0 0 -33 0 -47 0 0 0 -1 -6 -7 -8 0 -84 -106 -10 0 0 -8 -9 -63 -52 -48 -33 -21 0 0 0 -22 -16 -25 -31 -24 -7 -10 0 0 0
0 0 0 0 0 0 0 -31 -38 -14 0 -39 -17 -37 -27 -57 -70 0 -44 -13 -18 -13 0 0 0 -9 -24 0 -71 -99 -125 0 -7 0 0 -33 -71 -60 -53 -46 -33 0 -20 -24 -25 -24 -19 -27 -28 -38 -45 -61 -44 0
0 0 0 0 0 0 0 0 0 0 0 0 -44 -25 0 -14 -20 -34 -31 -19 -15 -15 -11 0 0 0 -29 -9 0 0 0 -41 -7 -5 0 -17 -50 -40 0 -25 -29 -33 -36 -30 -20 -21 -30 -34 -48 -46 -49 -49 -34 -25
0 0 0 0 0 0 0 0 0 0 0 0 0 -32 -3 -39 -20 -10 -12 -19 -15 -12 0 -26 -36 -52 -100 0 0 0 0 0 -44 -49 -1 -1 0 -40 -36 -47 -1 -56 -39 -32 -28 -32 -34 -37 -53 -50 -55 -42 -57 -48
0 0 0 0 0 0 0 0 0 0 0 0 0 0 0 -12 -13 -1 -40 -20 -15 -24 -43 -35 -35 -53 0 -9 -39 -12 0 0 0 0 -10 -4 0 0 0 0 0 0 0 0 0 -25 -40 -28 -102 -89 -73 -65 -52 -70
0 0 0 0 0 0 0 0 0 0 -42 -35 -64 -38 -22 -27 -39 0 -14 -28 -38 0 -35 -24 -51 -50 -25 -34 -41 -2 0 0 -13 -32 -12 0 0 0 0 0 0 0 0 0 -52 0 0 -51 0 0 0 -65 -59 0
0 0 0 0 0 0 0 0 0 -48 -50 -32 -31 -20 -24 -30 -66 -2 -6 -10 0 0 -43 0 -47 -33 -37 -10 0 0 -13 -62 -41 -42 0 -21 -23 -8 -40 -5 -57 -56 0 0 -4 0 0 -49 0 -48 -36 -29 -26 -14
0 0 0 0 0 0 0 -3 -14 -17 -12 -11 -11 -12 -15 -60 0 -4 -7 -13 -24 -31 0 -39 -20 0 0 0 0 -51 -79 -53 -24 -14 -39 -51 -34 -31 -39 -15 -70 -82 -7 -53 -28 -45 -33 -7 -44 -45 -33 -35 -30 -34
0 0 0 0 0 0 0 -16 -23 -20 -27 -18 -20 -30 0 0 0 -2 -5 -16 -19 -20 -7 0 0 0 -6 0 -41 -45 -47 -78 -61 -33 -58 0 -37 -22 -20 -22 -28 -23 -94 -16 -28 -23 -15 -10 -45 -29 -17 0 0 0
0 0 0 0 0 0 0 0 0 0 0 0 0 -18 -1 0 0 -16 -34 -43 -25 -39 -45 -57 -51 -59 0 0 -69 -69 -82 -96 -71 -57 -26 0 0 -95 -57 -28 0 0 0 -50 -67 -48 -22 0 0 0 0 0 0 0
-27 -23 0 0 0 0 -22 -16 -6 -3 -4 0 -17 0 -9 0 0 -24 -25 -40 -48 -52 -55 -77 -40 -12 -68 0 0 -76 -54 -90 -62 0 0 0 0 0 0 0 0 0 0 0 -8 -10 -54 -51 0 0 0 0 0 0
-48 -21 0 -11 -43 -41 -38 -2 -2 -8 0 -30 -14 -7 -4 -30 -46 -44 -47 -60 -84 -51 -34 -52 -12 0 -9 -34 0 0 0 -59 -17 -21 -29 -9 -24 -28 0 0 0 0 0 0 0 0 0 0 0 0 0 0 0 0
0 0 0 -30 -26 -9 -21 0 -27 -65 -58 -31 -20 -15 -27 -37 -62 -79 -70 -62 -56 -24 -29 -37 -48 0 0 0 0 -56 -84 -78 -68 -31 -22 -18 -23 -59 0 0 0 0 0 0 0 0 0 0 0 0 0 0 0 0
0 -64 -4 -12 -9 -32 -66 -35 -70 0 0 -41 -23 -19 -17 -30 -31 -61 -64 -73 -46 -42 -31 -26 -31 -55 -46 -63 -44 -27 -23 -34 -27 0 0 -71 -76 0 0 0 0 0 0 0 0 0 0 0 0 0 0 0 0 0
0 -40 -2 -19 -10 -55 -91 -54 0 0 0 -1 -40 -50 -26 -13 -7 -18 -46 -61 -51 -29 -36 -36 -24 -19 -35 -41 -71 -69 -58 -65 0 0 0 0 0 0 0 0 0 0 0 0 0 0 0 0 0 0 0 0 0 0
-9 -7 -29 -28 -16 -14 0 -51 -24 0 -6 -27 -26 -48 -9 -15 -6 -17 -53 -74 -33 -26 -24 -36 -49 -54 -52 -42 -45 -43 0 0 0 0 0 0 0 0 0 0 0 0 0 0 0 0 0 0 0 0 0 0 0 0
Wind_Speed
18 17 17 18 19 20 19 19 20 23 24 22 20 20 24 25 25 24 9 7 17 19 27 24 17 19 22 19 19 20 16 14 13 19 20 20 22 23 22 24 23 22 21 24 22 22 20 16 15 14 24 21 19 20
14 13 13 15 16 17 16 15 17 20 22 22 22 19 19 21 22 23 15 16 19 19 26 27 34 31 26 22 22 19 17 12 11 14 17 16 19 17 19 24 21 23 17 19 19 22 14 16 17 18 17 21 20 23
13 13 12 14 14 15 16 16 16 16 17 17 16 21 19 15 15 11 9 19 18 23 26 22 23 27 26 17 5 19 18 14 14 15 14 16 20 15 16 20 17 20 17 16 14 14 12 14 11 13 17 19 22 25
13 13 14 14 18 19 19 19 19 19 19 16 15 14 18 14 9 8 9 11 17 18 19 18 19 22 16 11 7 11 24 16 13 14 18 16 17 14 17 16 14 15 12 15 15 15 13 14 14 18 20 18 21 24
17 18 18 17 16 18 19 21 22 22 22 20 17 16 13 10 8 7 8 10 10 16 17 20 23 17 22 7 3 5 4 17 18 17 17 18 15 13 16 15 16 13 13 12 14 16 16 12 14 14 16 19 23 22
21 19 16 13 12 12 16 19 20 23 24 23 22 19 14 7 9 14 15 11 12 11 17 17 19 17 15 7 8 15 18 17 16 16 18 19 18 16 12 15 19 15 14 11 13 10 10 7 12 17 19 21 22 23
19 18 17 16 15 16 22 23 23 23 22 25 27 24 18 11 11 12 15 14 12 11 15 19 19 16 17 16 17 16 14 15 16 17 19 18 17 15 17 17 11 10 12 14 14 11 15 17 20 20 21 23 24 23
29 30 29 19 28 29 31 32 32 29 29 30 27 27 23 11 10 13 14 7 8 14 13 16 18 17 16 15 16 15 14 13 15 15 16 17 14 16 20 11 8 9 10 13 14 15 16 18 20 22 23 25 26 27
39 40 40 40 39 40 41 40 38 34 35 33 31 16 14 13 13 13 19 12 12 11 13 9 11 13 18 15 16 14 15 18 20 19 17 14 17 18 15 6 8 11 15 12 15 18 21 23 26 27 27 28 28 29
40 40 40 41 42 40 38 38 39 39 38 32 19 16 15 14 23 17 16 14 13 12 12 14 12 13 14 14 15 14 16 17 19 17 14 16 17 16 8 10 11 11 10 13 17 22 24 25 26 26 25 24 24 27
40 40 39 38 40 39 38 38 39 40 27 24 23 18 20 25 16 15 15 14 13 16 13 13 10 14 13 13 12 14 14 16 18 16 16 16 16 12 8 8 9 12 13 15 15 17 18 19 22 23 24 25 26 27
40 39 38 38 37 35 36 37 37 29 26 24 20 21 19 17 16 16 16 16 15 18 15 13 10 7 11 12 14 16 14 16 17 19 16 17 15 8 6 7 8 10 11 12 14 15 17 20 21 23 24 25 26 27
38 37 36 34 30 28 33 34 33 31 27 19 18 18 17 14 16 18 18 16 15 17 15 11 10 10 12 13 14 15 16 17 18 16 16 15 8 4 4 6 8 9 10 12 14 15 18 20 21 23 24 24 24 25
36 34 35 30 25 30 35 33 32 26 21 20 20 20 16 16 17 17 21 22 20 23 23 17 10 13 13 12 12 14 14 15 15 15 16 13 3 3 4 6 6 7 9 13 15 17 19 22 23 23 23 23 24 24
35 31 23 23 29 36 35 34 25 17 17 18 18 18 16 20 20 20 22 19 21 21 21 17 13 12 13 14 13 13 14 15 15 15 15 8 4 5 7 7 7 8 9 14 15 16 18 20 21 22 23 22 23 23
32 27 22 25 36 36 35 22 18 16 16 16 15 19 23 22 24 23 22 22 22 21 20 18 17 14 14 14 13 14 14 14 13 13 11 7 7 10 12 14 14 13 12 14 16 18 18 17 15 20 20 20 21 20
28 20 23 24 26 9 18 16 16 16 15 15 15 20 24 23 24 24 24 24 22 22 21 20 19 15 13 14 12 13 12 9 8 8 10 9 10 10 10 9 10 12 14 14 15 14 16 16 14 14 15 17 19 19
21 19 13 7 13 17 16 17 17 16 16 16 17 10 6 7 25 24 21 22 23 21 19 20 19 17 14 11 11 11 8 9 10 10 11 12 11 11 11 10 10 11 12 13 14 14 13 12 13 14 16 21 21 20
14 12 6 4 14 17 18 17 16 16 15 14 13 8 7 10 10 19 19 19 18 16 14 15 18 17 12 9 6 6 8 9 9 11 12 12 13 12 12 11 12 12 12 11 11 10 13 12 10 13 16 16 17 19
13 16 18 17 17 19 19 18 17 16 15 12 10 18 7 10 13 17 14 14 15 13 14 13 14 13 11 9 10 8 9 10 11 13 14 14 14 13 12 10 11 13 13 11 13 15 17 14 14 13 13 11 13 15
19 20 19 18 19 18 18 19 18 17 14 13 9 8 11 9 12 10 12 10 13 9 9 10 9 9 9 9 9 11 11 13 13 12 12 13 14 15 17 17 16 16 14 13 14 15 17 15 14 10 9 10 11 13
17 16 16 17 18 18 18 17 17 15 17 14 11 9 10 12 12 11 10 12 10 12 12 10 11 12 10 10 11 12 13 13 13 13 13 14 16 18 19 19 17 17 15 14 14 15 13 13 12 9 8 12 11 13
14 16 16 16 16 16 15 16 17 17 19 16 12 17 8 21 11 11 10 10 11 11 12 12 12 12 11 11 12 13 14 12 11 12 13 14 16 18 19 20 18 16 13 11 12 13 11 10 11 12 10 10 11 15
16 16 17 16 16 16 14 16 15 14 14 13 16 15 17 11 12 12 9 8 10 11 12 13 13 13 12 13 14 13 12 12 11 11 13 14 17 18 19 19 20 20 21 18 13 12 11 11 12 12 11 11 12 13
16 16 17 17 15 14 14 13 14 15 15 14 13 15 15 15 17 17 18 11 11 13 14 14 15 15 12 12 13 11 11 9 11 12 14 13 14 13 10 7 9 19 20 20 19 17 14 15 13 12 12 14 16 17
15 16 16 12 14 15 14 13 14 13 13 14 14 12 15 17 19 20 19 11 11 12 13 14 14 12 12 11 8 7 7 12 11 10 10 11 17 17 14 10 12 5 20 20 19 19 18 17 16 16 15 14 23 19
15 13 13 15 13 12 12 13 12 13 13 13 12 11 14 17 18 17 15 15 7 12 12 13 17 15 13 10 5 10 15 15 14 12 12 10 9 8 18 18 21 20 19 18 17 17 16 13 9 8 12 19 21 21
12 13 12 13 12 15 12 11 12 14 14 14 12 15 15 15 15 15 15 15 18 18 17 16 16 14 10 8 9 10 11 11 9 11 12 11 14 15 10 17 17 14 14 13 12 11 11 9 10 14 16 18 18 17
12 13 13 13 12 13 13 12 11 13 13 15 15 11 12 14 15 15 15 13 16 15 17 16 11 6 12 10 10 10 10 9 9 9 10 12 14 15 15 19 20 21 21 21 20 18 10 6 5 6 8 11 16 16
12 13 12 11 11 11 9 12 15 15 16 15 18 12 12 13 16 17 17 14 12 13 14 16 17 19 17 18 17 15 14 13 13 14 16 14 8 17 18 18 20 21 21 21 22 24 25 25 25 25 22 18 14 15
14 12 11 11 10 7 7 19 20 20 20 21 19 18 17 19 17 19 17 16 16 14 12 12 19 20 20 19 20 17 16 15 15 15 15 13 12 16 19 19 19 19 20 21 22 24 25 26 25 24 23 19 16 16
13 13 11 9 8 12 14 14 18 20 22 23 22 21 17 16 15 13 13 13 14 16 15 12 8 21 23 18 16 16 16 14 15 15 12 11 13 15 15 16 17 19 19 20 21 22 24 27 27 27 27 25 25 25
13 12 11 10 8 16 16 16 17 18 20 20 19 19 18 14 10 12 12 9 15 10 7 7 13 15 15 17 18 16 14 13 13 18 20 20 16 12 10 13 17 18 19 18 19 19 22 24 25 26 27 26 26 26
Wind_Direction
292 291 293 295 299 300 299 299 300 302 302 295 288 288 296 299 302 316 250 26 308 294 244 271 287 281 274 282 280 295 290 304 305 274 270 272 270 268 276 276 275 277 277 274 276 281 280 293 300 293 288 297 300 300
285 284 286 292 294 294 294 292 293 296 296 295 293 286 282 282 287 322 352 323 303 300 253 273 246 225 207 198 276 272 288 304 310 296 281 286 277 286 284 278 275 276 290 289 285 282 294 292 289 295 300 294 300 297
283 284 284 290 293 292 291 290 290 290 288 284 280 285 282 265 252 47 46 313 315 289 267 282 215 235 264 178 138 282 280 303 283 290 295 291 279 292 292 286 288 284 288 304 298 289 298 294 306 300 306 308 300 297
284 285 285 285 292 293 293 291 290 290 288 283 278 276 276 260 215 92 64 29 322 310 297 285 282 263 276 301 142 157 266 300 315 308 285 297 291 292 288 297 300 301 305 307 296 293 303 295 295 299 302 308 306 304
288 288 289 288 287 289 290 291 291 290 288 284 279 276 263 237 199 130 127 124 124 316 298 273 265 283 268 327 93 117 326 292 289 294 292 293 301 302 300 301 298 307 308 314 298 295 291 304 294 300 301 313 310 309
291 289 288 291 292 291 288 288 288 287 287 284 282 272 255 204 89 58 29 69 124 51 303 290 291 292 294 348 333 305 293 291 295 295 290 286 289 294 306 295 293 301 305 313 315 319 339 4 304 301 309 313 309 307
291 289 290 289 290 289 289 290 289 287 284 286 284 273 252 36 56 55 30 32 70 42 323 289 288 300 297 310 306 314 310 298 294 293 288 291 291 286 292 294 307 314 314 312 312 314 308 301 291 303 308 306 310 308
302 303 304 292 299 297 298 300 300 294 292 291 282 279 320 20 30 13 16 75 113 347 343 312 299 298 306 311 309 308 307 307 305 300 299 296 302 293 286 304 313 318 326 319 318 318 310 306 308 311 310 306 304 304
325 331 336 337 319 321 327 322 313 302 299 296 301 1 11 4 359 1 332 12 2 356 342 352 328 318 299 308 313 312 309 300 297 294 292 302 291 289 298 312 311 306 306 319 314 312 307 304 303 305 306 305 303 300
333 337 339 335 330 332 332 328 324 317 311 332 353 349 346 351 315 342 345 343 339 335 327 317 321 317 322 319 310 310 311 308 302 299 305 295 294 300 309 309 317 323 336 328 315 305 306 304 306 307 310 313 313 306
339 340 343 344 338 334 332 334 335 331 353 354 343 338 330 315 335 334 328 327 330 321 328 310 305 305 323 319 328 313 315 315 303 302 302 300 296 297 307 317 328 331 332 332 333 331 329 326 321 318 315 316 315 313
341 342 343 342 340 340 342 341 341 352 349 344 340 334 334 329 324 320 317 315 314 310 319 315 309 321 320 326 316 311 315 318 309 305 302 296 303 307 320 330 340 341 343 342 341 341 337 331 329 327 325 322 320 317
347 348 348 349 349 350 347 344 342 341 341 351 347 337 334 334 317 307 302 309 313 314 318 318 308 304 312 320 319 311 305 302 310 312 305 306 324 345 355 342 338 343 345 346 343 340 337 334 335 334 331 330 328 325
351 353 350 354 359 352 344 343 340 345 347 339 333 323 324 321 317 315 309 303 309 302 298 298 297 299 303 308 322 318 308 311 307 308 306 315 9 26 358 355 1 356 353 340 335 332 328 326 327 330 332 333 333 330
353 356 2 5 357 348 346 344 351 2 356 343 338 324 320 321 320 315 311 309 305 304 301 290 290 294 295 301 305 310 308 303 310 305 311 341 30 18 333 336 344 343 347 337 340 339 333 330 329 328 330 332 334 335
359 2 12 6 351 350 349 11 24 25 17 2 353 332 321 317 310 311 311 309 307 297 296 285 279 285 285 296 297 295 299 305 316 326 338 349 333 312 316 310 309 322 328 330 335 335 340 343 352 335 337 338 337 337
4 16 9 6 7 343 30 47 53 51 45 35 15 351 326 319 309 302 295 286 291 287 284 282 273 273 291 285 292 299 302 326 346 8 351 352 338 336 330 332 334 332 329 335 338 344 340 347 353 354 350 346 341 336
13 11 3 352 18 36 56 61 60 66 65 62 47 239 168 118 292 294 302 294 275 279 282 276 284 259 271 288 289 296 325 323 322 332 328 336 343 343 340 343 343 341 343 345 345 344 346 347 349 349 338 324 325 334
2 359 3 324 43 51 51 64 75 69 79 73 75 26 98 107 163 338 312 309 293 289 281 309 276 271 290 310 330 323 328 325 331 331 331 344 344 346 338 333 340 342 353 359 0 7 350 348 355 341 336 346 345 344
18 30 31 43 59 45 51 63 74 72 76 93 105 303 142 107 43 329 261 288 297 298 277 305 252 259 260 292 302 20 11 345 333 328 325 328 328 332 353 14 0 351 348 354 348 341 333 337 340 349 345 6 10 8
28 32 38 51 51 60 50 55 71 78 90 97 153 198 139 141 140 188 198 228 207 278 276 268 261 260 304 325 338 346 345 344 343 345 349 348 338 329 335 339 339 336 334 334 334 331 331 337 340 358 7 13 20 12
36 43 57 61 58 58 64 77 70 83 89 105 126 182 167 133 157 192 196 177 203 229 218 228 241 259 287 304 335 343 351 353 338 342 3 345 341 336 335 335 341 339 335 330 328 330 334 335 345 3 6 354 17 18
45 50 62 63 65 64 74 70 72 80 75 97 132 105 253 72 155 183 215 209 230 228 237 262 275 273 323 314 332 333 338 335 344 354 7 359 354 357 355 348 358 11 18 6 338 331 331 348 357 356 11 23 12 358
41 49 52 60 77 87 92 86 95 105 106 123 96 104 99 278 344 13 287 199 220 244 270 276 275 313 319 316 310 313 327 357 12 7 358 356 4 354 354 11 33 45 47 59 38 7 9 359 358 4 8 15 3 357
50 51 51 61 109 110 111 116 117 112 113 122 124 113 114 126 13 354 356 321 272 288 272 254 234 263 70 6 349 359 301 345 359 352 336 277 270 292 287 273 171 105 100 102 87 55 4 356 14 29 15 1 350 342
50 38 46 270 129 139 133 134 130 132 131 124 123 135 111 101 81 51 62 268 262 281 317 341 1 354 332 300 341 338 286 235 244 271 278 267 166 167 174 270 305 151 87 77 76 69 64 50 36 20 13 346 317 339
37 342 244 192 191 178 171 157 144 132 130 130 139 138 117 95 81 95 112 111 253 280 321 357 23 10 10 14 330 236 215 222 227 241 250 298 313 215 110 99 48 66 75 80 83 80 79 93 130 122 223 275 340 336
266 248 262 247 223 124 178 182 136 110 100 96 111 88 82 88 90 93 107 121 92 65 41 17 10 4 357 341 303 288 282 276 328 354 356 346 351 339 317 74 79 88 81 86 107 109 102 102 78 43 34 24 16 5
243 236 242 251 236 164 147 133 106 75 65 36 15 76 73 53 76 72 40 136 107 56 43 120 249 261 222 280 281 272 285 304 334 309 304 320 313 311 309 351 27 25 32 22 19 28 73 125 119 104 65 42 22 21
228 220 229 230 212 231 152 92 56 61 53 50 349 12 21 16 340 329 301 276 83 76 70 185 186 162 178 189 206 218 231 246 265 262 204 177 151 281 312 26 28 30 27 23 21 15 8 8 4 2 12 17 24 18
209 205 204 183 179 167 149 64 62 58 54 50 43 12 2 335 11 246 225 222 238 302 16 105 168 160 177 165 186 221 236 234 241 262 268 202 86 41 27 36 44 39 32 28 23 18 14 10 7 7 8 13 12 4
205 192 189 183 166 110 101 89 77 65 55 51 51 40 356 337 345 276 263 223 3 342 331 335 63 145 167 196 212 205 201 227 237 235 192 67 48 36 41 43 41 32 29 26 26 23 20 18 15 11 7 5 2 356
209 202 179 158 125 69 73 94 83 70 64 74 80 78 78 318 253 229 213 300 3 330 291 236 207 212 226 214 196 205 211 192 141 73 50 43 49 62 67 32 15 22 26 33 32 29 20 18 16 15 13 10 6 1